This is the latest recevied weather packets stored in our database for station/object SP1BMW-13. If no packets are shown the sender has not sent any weather packets the latest 10 day(s).
| Time | Temp. | Humidity | Pressure | Rain* | Wind** | Luminosity | Snow |
|---|---|---|---|---|---|---|---|
| 1787987480 | 20.56° C | 70% | 1009.3 hPa | 0 mm | 0.45 m/s, 123° | 283 W/m² | - |
| 1787987420 | 20.56° C | 69% | 1009.2 hPa | 0 mm | 0.89 m/s, 231° | 299 W/m² | - |
| 1787987360 | 20.56° C | 69% | 1009.3 hPa | 0 mm | 2.68 m/s, 243° | 292 W/m² | - |
| 1787987300 | 20.56° C | 69% | 1009.2 hPa | 0 mm | 0.89 m/s, 277° | 293 W/m² | - |
| 1787987240 | 20.56° C | 70% | 1009.3 hPa | 0 mm | 0.45 m/s, 72° | 259 W/m² | - |
| 1787987181 | 20.56° C | 71% | 1009.2 hPa | 0 mm | 0.45 m/s, 286° | 193 W/m² | - |
| 1787987120 | 20.56° C | 70% | 1009.3 hPa | 0 mm | 0.45 m/s, 283° | 274 W/m² | - |
| 1787987060 | 20.56° C | 71% | 1009.2 hPa | 0 mm | 1.34 m/s, 211° | 297 W/m² | - |
| 1787987001 | 20.56° C | 70% | 1009.3 hPa | 0 mm | 0.89 m/s, 259° | 295 W/m² | - |
| 1787986941 | 20.56° C | 70% | 1009.3 hPa | 0 mm | 0.89 m/s, 220° | 286 W/m² | - |
| 1787986881 | 20.56° C | 70% | 1009.4 hPa | 0 mm | 1.79 m/s, 158° | 291 W/m² | - |
| 1787986820 | 20.56° C | 70% | 1009.4 hPa | 0 mm | 1.34 m/s, 206° | 277 W/m² | - |
| 1787986760 | 20.56° C | 70% | 1009.3 hPa | 0 mm | 1.79 m/s, 176° | 261 W/m² | - |
| 1787986700 | 20.56° C | 70% | 1009.3 hPa | 0 mm | 1.34 m/s, 262° | 218 W/m² | - |
| 1787986640 | 20.56° C | 70% | 1009.5 hPa | 0 mm | 1.34 m/s, 267° | 196 W/m² | - |
| 1787986581 | 20.56° C | 70% | 1009.4 hPa | 0 mm | 0.89 m/s, 221° | 203 W/m² | - |
| 1787986521 | 20.56° C | 70% | 1009.3 hPa | 0 mm | 2.24 m/s, 248° | 246 W/m² | - |
| 1787986460 | 20.56° C | 70% | 1009.3 hPa | 0 mm | 0.45 m/s, 287° | 242 W/m² | - |
| 1787986400 | 20.56° C | 70% | 1009.2 hPa | 0 mm | 1.34 m/s, 203° | 235 W/m² | - |
| 1787986341 | 20.56° C | 69% | 1009.5 hPa | 0 mm | 0.89 m/s, 290° | 224 W/m² | - |
| 1787986280 | 20.56° C | 69% | 1009.5 hPa | 0 mm | 1.34 m/s, 261° | 222 W/m² | - |
| 1787986221 | 20.56° C | 69% | 1009.4 hPa | 0 mm | 1.34 m/s, 211° | 216 W/m² | - |
| 1787986160 | 20.56° C | 69% | 1009.2 hPa | 0 mm | 0.89 m/s, 273° | 212 W/m² | - |
| 1787986100 | 20.56° C | 69% | 1009.3 hPa | 0 mm | 0.89 m/s, 259° | 208 W/m² | - |
| 1787986040 | 20.56° C | 69% | 1009.2 hPa | 0 mm | 0.45 m/s, 27° | 206 W/m² | - |
* Rain latest hour (hover to see other rain measurements)
** Current wind speed in m/s (hover to see current wind gust speed)